Grazzanise, Italy

3:59 AM CEST on March 30, 2017 (GMT +0200)
Grazzanise Mil

Weather History for LIRM - May, 2013

Change the Weather History Date:

Tuesday, May 21, 2013

  Actual Average (LIRN) Record (LIRN)
Temperature  
Mean Temperature 62 °F -  
Max Temperature 76 °F 78 °F 80 °F (2001)
Min Temperature 48 °F 56 °F 35 °F (2003)
Degree Days  
Heating Degree Days 3    
Growing Degree Days 12 (Base 50)    
Moisture  
Dew Point 53 °F    
Average Humidity 78    
Maximum Humidity 100    
Minimum Humidity 25    
Precipitation  
Precipitation 0.00 in 0.04 in - ()
Sea Level Pressure  
Sea Level Pressure 29.98 in    
Wind  
Wind Speed 5 mph ()    
Max Wind Speed 12 mph    
Max Gust Speed -    
Visibility 7.0 miles    
Events Rain    
Averages and records for this station are not official NWS values.
T = Trace of Precipitation, MM = Missing Value Source: Averaged Metar Reports

Daily Weather History Graph

Daily Weather History Graph

Search for Another Location

Airport or City:

Trip Planner

Search our weather history database for the weather conditions in past years. The results will help you decide how hot, cold, wet, or windy it might be!

Date:

Astronomy

May. 21, 2013 Rise Set
Actual Time 5:40 AM CEST 8:20 PM CEST
Civil Twilight 5:08 AM CEST 8:52 PM CEST
Nautical Twilight 4:28 AM CEST 9:32 PM CEST
Astronomical Twilight 3:43 AM CEST 10:18 PM CEST
Moon 4:13 PM CEST (5/21) 3:00 AM CEST (5/21)
Length of Visible Light 15h 43m
Length of Day
14h 40m
Waxing Gibbous, 81% of the Moon is Illuminated
May 21
Waxing Gibbous
May 25
Full
May 31
Last Quarter
Jun 8
New
Jun 16
First Quarter

Hourly Weather History & Observations

Time (CEST) Temp. Dew Point Humidity Pressure Visibility Wind Dir Wind Speed Gust Speed Precip Events Conditions
12:55 AM 53.6 °F 53.6 °F 100% 30.12 in 6.2 mi ESE 4.6 mph - N/A   Partly Cloudy
1:55 AM 51.8 °F 51.8 °F 100% 30.12 in - NE 3.5 mph - N/A   Clear
2:00 AM 52 °F 52 °F 98% 30.13 in 12 mi NE 3.5 mph - -  
2:55 AM 50.0 °F 50.0 °F 100% 30.09 in - NE 4.6 mph - N/A   Clear
4:55 AM 48.2 °F 46.4 °F 93% 30.06 in - NNE 4.6 mph - N/A   Clear
5:00 AM 48 °F 46 °F 90% 30.08 in 12 mi NNE 4.6 mph - -  
5:55 AM 48.2 °F 44.6 °F 87% 30.04 in - NNE 5.8 mph - N/A   Clear
6:55 AM 51.8 °F 48.2 °F 88% 30.04 in - North 5.8 mph - N/A   Clear
7:55 AM 57.2 °F 50.0 °F 77% 30.04 in 6.2 mi NNE 8.1 mph - N/A   Partly Cloudy
8:00 AM 56 °F 51 °F 77% 30.04 in 12 mi NNE 8.1 mph - -  
8:55 AM 59.0 °F 51.8 °F 77% 30.01 in 6.2 mi North 10.4 mph - N/A   Scattered Clouds
9:55 AM 64.4 °F 51.8 °F 64% 30.01 in 6.2 mi NE 8.1 mph - N/A   Scattered Clouds
10:55 AM 68.0 °F 50.0 °F 52% 30.01 in - NE 9.2 mph - N/A   Clear
11:00 AM 68 °F 50 °F 43% 30.01 in 31 mi NE 9.2 mph - -   Mostly Cloudy
11:55 AM 73.4 °F 53.6 °F 50% 29.98 in 6.2 mi NNE 5.8 mph - N/A   Scattered Clouds
1:55 PM 75.2 °F 46.4 °F 36% 29.95 in 6.2 mi NW 4.6 mph - N/A   Scattered Clouds
2:00 PM 76 °F 47 °F 25% 29.95 in 31 mi NW 4.6 mph - -   Overcast
2:55 PM 69.8 °F 59.0 °F 68% 29.92 in 6.2 mi West 6.9 mph - N/A   Mostly Cloudy
3:55 PM 69.8 °F 60.8 °F 73% 29.92 in 6.2 mi NNW 5.8 mph - N/A   Mostly Cloudy
4:55 PM 69.8 °F 60.8 °F 73% 29.92 in 6.2 mi WNW 4.6 mph - N/A   Mostly Cloudy
5:00 PM 71 °F 60 °F 61% 29.93 in 25 mi WNW 4.6 mph - - Rain Light Rain
5:55 PM 66.2 °F 62.6 °F 88% 29.92 in 3.1 mi SW 2.3 mph - N/A Rain Light Rain
6:55 PM 64.4 °F 62.6 °F 94% 29.92 in 5.6 mi NNE 3.5 mph - N/A   Mostly Cloudy
7:55 PM 59.0 °F 57.2 °F 94% 29.89 in 6.2 mi North 11.5 mph - N/A   Mostly Cloudy
8:00 PM 60 °F 58 °F 90% 29.90 in 6 mi North 11.5 mph - -   Overcast
8:55 PM 57.2 °F 55.4 °F 94% 29.86 in 6.2 mi NE 9.2 mph - N/A   Mostly Cloudy
9:55 PM 59.0 °F 55.4 °F 88% 29.86 in 6.2 mi NNE 4.6 mph - N/A   Mostly Cloudy
10:55 PM 57.2 °F 55.4 °F 94% 29.86 in 6.2 mi NE 4.6 mph - N/A   Mostly Cloudy
11:00 PM 58 °F 55 °F 85% 29.86 in 9 mi NE 4.6 mph - -   Overcast
11:55 PM 57.2 °F 55.4 °F 94% 29.86 in 6.2 mi North 8.1 mph - N/A   Mostly Cloudy